TimeEST,TemperatureF,Dew PointF,Humidity,Sea Level PressureIn,VisibilityMPH,Wind Direction,Wind SpeedMPH,Gust SpeedMPH,PrecipitationIn,Events,Conditions,WindDirDegrees,DateUTC
12:55 AM,25.7,19.2,76,30.14,10.0,SSW,11.5,-,N/A,,Overcast,200,2013-01-26 05:55:00
1:55 AM,26.1,19.8,77,30.14,10.0,SW,16.1,-,N/A,,Overcast,220,2013-01-26 06:55:00
2:55 AM,24.3,17.8,76,30.16,10.0,SW,11.5,-,N/A,,Mostly Cloudy,220,2013-01-26 07:55:00
3:55 AM,23.7,17.6,77,30.16,10.0,SW,11.5,-,N/A,,Overcast,230,2013-01-26 08:55:00
4:55 AM,23.0,16.2,75,30.17,10.0,West,9.2,-,N/A,,Overcast,260,2013-01-26 09:55:00
5:41 AM,23.0,15.8,74,30.18,10.0,West,6.9,-,N/A,,Overcast,260,2013-01-26 10:41:00
5:55 AM,23.0,16.2,75,30.19,10.0,WSW,8.1,-,N/A,,Mostly Cloudy,250,2013-01-26 10:55:00
6:48 AM,23.0,15.8,74,30.22,10.0,West,8.1,-,N/A,,Mostly Cloudy,280,2013-01-26 11:48:00
6:55 AM,23.7,16.0,72,30.22,10.0,West,8.1,-,N/A,,Mostly Cloudy,280,2013-01-26 11:55:00
7:40 AM,24.8,15.8,69,30.25,10.0,West,6.9,-,N/A,,Overcast,270,2013-01-26 12:40:00
7:55 AM,23.9,16.0,72,30.25,10.0,West,8.1,-,N/A,,Overcast,270,2013-01-26 12:55:00
8:55 AM,24.1,15.4,70,30.28,10.0,West,6.9,-,N/A,,Overcast,280,2013-01-26 13:55:00
9:40 AM,24.8,15.8,69,30.30,10.0,WNW,9.2,-,N/A,,Overcast,290,2013-01-26 14:40:00
9:55 AM,24.6,15.6,69,30.31,10.0,WNW,6.9,-,N/A,,Overcast,290,2013-01-26 14:55:00
10:55 AM,26.1,16.3,67,30.34,10.0,WNW,9.2,-,N/A,,Mostly Cloudy,300,2013-01-26 15:55:00
11:55 AM,27.1,16.9,65,30.36,10.0,NW,8.1,-,N/A,,Mostly Cloudy,310,2013-01-26 16:55:00
12:55 PM,28.2,17.1,63,30.35,10.0,NW,6.9,-,N/A,,Scattered Clouds,320,2013-01-26 17:55:00
1:55 PM,27.7,17.2,65,30.35,10.0,NW,9.2,-,N/A,,Mostly Cloudy,320,2013-01-26 18:55:00
2:55 PM,28.0,16.7,62,30.35,10.0,NNW,8.1,-,N/A,,Mostly Cloudy,340,2013-01-26 19:55:00
3:55 PM,27.7,14.7,58,30.34,10.0,NW,6.9,-,N/A,,Overcast,310,2013-01-26 20:55:00
4:55 PM,27.3,14.0,57,30.40,10.0,NNW,4.6,-,N/A,,Overcast,340,2013-01-26 21:55:00
5:55 PM,26.6,15.3,62,30.42,10.0,NNW,5.8,-,N/A,,Overcast,340,2013-01-26 22:55:00
6:55 PM,26.1,15.3,64,30.43,10.0,NNW,4.6,-,N/A,,Overcast,330,2013-01-26 23:55:00
7:55 PM,25.9,14.9,63,30.45,10.0,NNW,4.6,-,N/A,,Overcast,340,2013-01-27 00:55:00
8:55 PM,25.5,15.6,66,30.45,10.0,North,4.6,-,N/A,,Overcast,360,2013-01-27 01:55:00
9:55 PM,25.2,15.1,66,30.46,10.0,NNE,8.1,-,N/A,,Overcast,20,2013-01-27 02:55:00
10:55 PM,25.0,15.3,67,30.47,10.0,ESE,5.8,-,N/A,,Overcast,110,2013-01-27 03:55:00
11:55 PM,23.2,14.2,68,30.47,10.0,East,4.6,-,N/A,,Scattered Clouds,90,2013-01-27 04:55:00